Time,TemperatureF,DewpointF,PressureIn,WindDirection,WindDirectionDegrees,WindSpeedMPH,WindSpeedGustMPH,Humidity,HourlyPrecipIn,Conditions,Clouds,dailyrainin,SoftwareType,DateUTC
2013-03-23 00:02:00,39.0,23.0,29.93,North,351,2.0,2.0,53,0.00,,,0.00,,2013-03-23 04:02:00,
2013-03-23 00:12:00,39.0,23.0,29.93,North,351,2.0,2.0,53,0.00,,,0.00,,2013-03-23 04:12:00,
2013-03-23 00:23:00,38.0,22.0,29.93,North,351,0.0,2.0,53,0.00,,,0.00,,2013-03-23 04:23:00,
2013-03-23 00:32:00,38.0,23.0,29.93,North,351,0.0,0.0,54,0.00,,,0.00,,2013-03-23 04:32:00,
2013-03-23 00:43:00,38.0,23.0,29.93,North,351,0.0,0.0,54,0.00,,,0.00,,2013-03-23 04:43:00,
2013-03-23 00:53:00,38.0,23.0,29.93,North,351,0.0,0.0,54,0.00,,,0.00,,2013-03-23 04:53:00,
2013-03-23 01:02:00,38.0,24.0,29.93,North,351,0.0,1.0,56,0.00,,,0.00,,2013-03-23 05:02:00,
2013-03-23 01:12:00,38.0,24.0,29.93,North,351,0.0,1.0,56,0.00,,,0.00,,2013-03-23 05:12:00,
2013-03-23 01:22:00,37.0,24.0,29.92,North,351,0.0,2.0,58,0.00,,,0.00,,2013-03-23 05:22:00,
2013-03-23 01:32:00,37.0,23.0,29.92,North,351,0.0,1.0,57,0.00,,,0.00,,2013-03-23 05:32:00,
2013-03-23 01:42:00,37.0,23.0,29.92,North,351,0.0,1.0,57,0.00,,,0.00,,2013-03-23 05:42:00,
2013-03-23 01:53:00,37.0,23.0,29.92,North,351,0.0,0.0,57,0.00,,,0.00,,2013-03-23 05:53:00,
2013-03-23 02:02:00,37.0,24.0,29.91,North,351,0.0,2.0,59,0.00,,,0.00,,2013-03-23 06:02:00,
2013-03-23 02:12:00,37.0,24.0,29.91,North,351,0.0,2.0,59,0.00,,,0.00,,2013-03-23 06:12:00,
2013-03-23 02:22:00,36.0,23.0,29.90,North,351,0.0,0.0,60,0.00,,,0.00,,2013-03-23 06:22:00,
2013-03-23 02:32:00,37.0,24.0,29.91,North,351,0.0,0.0,58,0.00,,,0.00,,2013-03-23 06:32:00,
2013-03-23 02:42:00,37.0,24.0,29.91,North,351,0.0,0.0,58,0.00,,,0.00,,2013-03-23 06:42:00,
2013-03-23 02:52:00,37.0,24.0,29.91,North,351,0.0,0.0,58,0.00,,,0.00,,2013-03-23 06:52:00,
2013-03-23 03:02:00,37.0,23.0,29.91,North,351,0.0,0.0,57,0.00,,,0.00,,2013-03-23 07:02:00,
2013-03-23 03:12:00,37.0,23.0,29.91,North,351,0.0,0.0,57,0.00,,,0.00,,2013-03-23 07:12:00,
2013-03-23 03:22:00,37.0,26.0,29.91,North,351,0.0,1.0,64,0.00,,,0.00,,2013-03-23 07:22:00,
2013-03-23 03:32:00,36.0,25.0,29.91,North,351,0.0,0.0,64,0.00,,,0.00,,2013-03-23 07:32:00,
2013-03-23 03:42:00,36.0,25.0,29.91,North,351,0.0,0.0,64,0.00,,,0.00,,2013-03-23 07:42:00,
2013-03-23 03:52:00,37.0,26.0,29.92,North,351,0.0,1.0,63,0.00,,,0.00,,2013-03-23 07:52:00,
2013-03-23 04:02:00,37.0,24.0,29.88,North,351,0.0,1.0,60,0.00,,,0.00,,2013-03-23 08:02:00,
2013-03-23 04:13:00,37.0,24.0,29.88,North,351,0.0,1.0,60,0.00,,,0.00,,2013-03-23 08:13:00,
2013-03-23 04:22:00,37.0,24.0,29.88,North,351,0.0,0.0,60,0.00,,,0.00,,2013-03-23 08:22:00,
2013-03-23 04:32:00,37.0,24.0,29.86,North,351,0.0,0.0,59,0.00,,,0.00,,2013-03-23 08:32:00,
2013-03-23 04:42:00,37.0,24.0,29.86,North,351,0.0,0.0,59,0.00,,,0.00,,2013-03-23 08:42:00,
2013-03-23 04:52:00,38.0,23.0,29.90,North,351,0.0,0.0,55,0.00,,,0.00,,2013-03-23 08:52:00,
2013-03-23 05:02:00,38.0,26.0,29.89,North,351,0.0,0.0,61,0.00,,,0.00,,2013-03-23 09:02:00,
2013-03-23 05:12:00,38.0,26.0,29.89,North,351,0.0,0.0,61,0.00,,,0.00,,2013-03-23 09:12:00,
2013-03-23 05:22:00,37.0,26.0,29.90,North,351,0.0,0.0,63,0.00,,,0.00,,2013-03-23 09:22:00,
2013-03-23 05:33:00,37.0,27.0,29.89,North,351,0.0,0.0,67,0.00,,,0.00,,2013-03-23 09:33:00,
2013-03-23 05:43:00,37.0,27.0,29.89,North,351,0.0,0.0,67,0.00,,,0.00,,2013-03-23 09:43:00,
2013-03-23 05:53:00,37.0,25.0,29.89,North,351,0.0,0.0,62,0.00,,,0.00,,2013-03-23 09:53:00,
2013-03-23 06:03:00,37.0,28.0,29.89,North,351,0.0,1.0,69,0.00,,,0.00,,2013-03-23 10:03:00,
2013-03-23 06:13:00,37.0,28.0,29.89,North,351,0.0,1.0,69,0.00,,,0.00,,2013-03-23 10:13:00,
2013-03-23 06:23:00,37.0,28.0,29.89,North,351,0.0,0.0,70,0.00,,,0.00,,2013-03-23 10:23:00,
2013-03-23 06:34:00,37.0,28.0,29.89,North,351,0.0,0.0,69,0.00,,,0.00,,2013-03-23 10:34:00,
2013-03-23 06:42:00,37.0,28.0,29.89,North,351,0.0,0.0,69,0.00,,,0.00,,2013-03-23 10:42:00,
2013-03-23 06:52:00,38.0,28.0,29.88,North,351,0.0,1.0,68,0.00,,,0.00,,2013-03-23 10:52:00,
2013-03-23 07:03:00,38.0,29.0,29.91,North,351,0.0,0.0,70,0.00,,,0.00,,2013-03-23 11:03:00,
2013-03-23 07:12:00,38.0,29.0,29.91,North,351,0.0,0.0,70,0.00,,,0.00,,2013-03-23 11:12:00,
2013-03-23 07:22:00,37.0,29.0,29.92,North,351,0.0,0.0,72,0.00,,,0.00,,2013-03-23 11:22:00,
2013-03-23 07:32:00,37.0,31.0,29.90,North,351,0.0,0.0,79,0.00,,,0.00,,2013-03-23 11:32:00,
2013-03-23 07:42:00,37.0,31.0,29.90,North,351,0.0,0.0,79,0.00,,,0.00,,2013-03-23 11:42:00,
2013-03-23 07:52:00,37.0,33.0,29.90,North,351,0.0,1.0,86,0.00,,,0.00,,2013-03-23 11:52:00,
2013-03-23 08:02:00,36.0,33.0,29.90,North,351,0.0,0.0,88,0.00,,,0.00,,2013-03-23 12:02:00,
2013-03-23 08:13:00,36.0,33.0,29.90,North,351,0.0,0.0,88,0.00,,,0.00,,2013-03-23 12:13:00,
2013-03-23 08:22:00,36.0,33.0,29.90,North,351,0.0,0.0,89,0.00,,,0.00,,2013-03-23 12:22:00,
2013-03-23 08:33:00,36.0,34.0,29.90,North,351,0.0,0.0,91,0.00,,,0.00,,2013-03-23 12:33:00,
2013-03-23 08:42:00,36.0,34.0,29.90,North,351,0.0,0.0,91,0.00,,,0.00,,2013-03-23 12:42:00,
2013-03-23 08:53:00,36.0,34.0,29.91,North,351,0.0,0.0,92,0.00,,,0.00,,2013-03-23 12:53:00,
2013-03-23 09:03:00,37.0,35.0,29.92,North,351,0.0,1.0,92,0.00,,,0.00,,2013-03-23 13:03:00,
2013-03-23 09:12:00,37.0,35.0,29.92,North,351,0.0,1.0,92,0.00,,,0.00,,2013-03-23 13:12:00,
2013-03-23 09:23:00,36.0,34.0,29.92,North,351,0.0,0.0,92,0.00,,,0.00,,2013-03-23 13:23:00,
2013-03-23 09:33:00,36.0,33.0,29.93,North,351,0.0,0.0,90,0.00,,,0.00,,2013-03-23 13:33:00,
2013-03-23 09:43:00,36.0,33.0,29.93,North,351,0.0,0.0,90,0.00,,,0.00,,2013-03-23 13:43:00,
2013-03-23 09:53:00,37.0,35.0,29.92,North,351,0.0,1.0,91,0.00,,,0.00,,2013-03-23 13:53:00,
2013-03-23 10:03:00,38.0,36.0,29.92,North,351,0.0,0.0,92,0.00,,,0.00,,2013-03-23 14:03:00,
2013-03-23 10:12:00,38.0,36.0,29.92,North,351,0.0,0.0,92,0.00,,,0.00,,2013-03-23 14:12:00,
2013-03-23 10:22:00,38.0,36.0,29.92,North,351,0.0,0.0,92,0.00,,,0.00,,2013-03-23 14:22:00,
2013-03-23 10:32:00,38.0,36.0,29.92,North,351,0.0,0.0,92,0.00,,,0.00,,2013-03-23 14:32:00,
2013-03-23 10:43:00,38.0,36.0,29.92,North,351,0.0,0.0,92,0.00,,,0.00,,2013-03-23 14:43:00,
2013-03-23 10:53:00,38.0,36.0,29.91,North,351,0.0,0.0,91,0.00,,,0.00,,2013-03-23 14:53:00,
2013-03-23 11:03:00,39.0,37.0,29.91,North,351,0.0,1.0,91,0.00,,,0.00,,2013-03-23 15:03:00,
2013-03-23 11:12:00,39.0,37.0,29.91,North,351,0.0,1.0,91,0.00,,,0.00,,2013-03-23 15:12:00,
2013-03-23 11:22:00,39.0,37.0,29.91,North,351,0.0,0.0,91,0.00,,,0.00,,2013-03-23 15:22:00,
2013-03-23 11:33:00,40.0,37.0,29.91,North,351,0.0,0.0,89,0.00,,,0.00,,2013-03-23 15:33:00,
2013-03-23 11:43:00,40.0,37.0,29.91,North,351,0.0,0.0,89,0.00,,,0.00,,2013-03-23 15:43:00,
2013-03-23 11:53:00,41.0,37.0,29.90,North,351,0.0,1.0,86,0.00,,,0.00,,2013-03-23 15:53:00,
2013-03-23 12:03:00,42.0,38.0,29.90,North,351,0.0,0.0,85,0.00,,,0.00,,2013-03-23 16:03:00,
2013-03-23 12:13:00,42.0,38.0,29.90,North,351,0.0,0.0,85,0.00,,,0.00,,2013-03-23 16:13:00,
2013-03-23 12:23:00,42.0,36.0,29.93,ENE,63,0.0,2.0,79,0.00,,,0.00,,2013-03-23 16:23:00,
2013-03-23 12:33:00,42.0,35.0,29.91,ENE,63,0.0,1.0,77,0.00,,,0.00,,2013-03-23 16:33:00,
2013-03-23 12:43:00,42.0,35.0,29.91,ENE,63,0.0,1.0,77,0.00,,,0.00,,2013-03-23 16:43:00,
2013-03-23 12:53:00,43.0,36.0,29.92,ENE,63,0.0,1.0,77,0.00,,,0.00,,2013-03-23 16:53:00,
2013-03-23 13:03:00,43.0,36.0,29.92,South,188,1.0,3.0,76,0.00,,,0.00,,2013-03-23 17:03:00,
2013-03-23 13:12:00,44.0,36.0,29.92,SSW,192,0.0,1.0,73,0.00,,,0.00,,2013-03-23 17:12:00,
2013-03-23 13:23:00,44.0,36.0,29.92,SSW,192,0.0,1.0,73,0.00,,,0.00,,2013-03-23 17:23:00,
2013-03-23 13:33:00,44.0,34.0,29.91,SSE,161,0.0,4.0,69,0.00,,,0.00,,2013-03-23 17:33:00,
2013-03-23 13:42:00,44.0,34.0,29.91,SSE,161,0.0,4.0,69,0.00,,,0.00,,2013-03-23 17:42:00,
2013-03-23 13:53:00,46.0,36.0,29.91,SSE,152,0.0,2.0,68,0.00,,,0.00,,2013-03-23 17:53:00,
2013-03-23 14:03:00,48.0,37.0,29.89,SE,125,1.0,3.0,65,0.00,,,0.00,,2013-03-23 18:03:00,
2013-03-23 14:12:00,48.0,37.0,29.89,SE,125,1.0,3.0,65,0.00,,,0.00,,2013-03-23 18:12:00,
2013-03-23 14:22:00,50.0,39.0,29.87,SSE,150,1.0,5.0,65,0.00,,,0.00,,2013-03-23 18:22:00,
2013-03-23 14:32:00,51.0,39.0,29.85,East,85,3.0,6.0,64,0.00,,,0.00,,2013-03-23 18:32:00,
2013-03-23 14:42:00,51.0,39.0,29.85,East,85,3.0,6.0,64,0.00,,,0.00,,2013-03-23 18:42:00,
2013-03-23 14:53:00,53.0,40.0,29.86,ESE,103,2.0,5.0,62,0.00,,,0.00,,2013-03-23 18:53:00,
2013-03-23 15:03:00,54.0,41.0,29.86,West,266,0.0,4.0,61,0.00,,,0.00,,2013-03-23 19:03:00,
2013-03-23 15:13:00,54.0,41.0,29.86,West,266,0.0,4.0,61,0.00,,,0.00,,2013-03-23 19:13:00,
2013-03-23 15:23:00,55.0,42.0,29.84,SSE,165,2.0,5.0,62,0.00,,,0.00,,2013-03-23 19:23:00,
2013-03-23 15:32:00,55.0,41.0,29.84,NW,326,0.0,5.0,59,0.00,,,0.00,,2013-03-23 19:32:00,
2013-03-23 15:42:00,55.0,41.0,29.84,NW,326,0.0,5.0,59,0.00,,,0.00,,2013-03-23 19:42:00,
2013-03-23 15:53:00,56.0,41.0,29.82,SE,142,2.0,4.0,57,0.00,,,0.00,,2013-03-23 19:53:00,
2013-03-23 16:03:00,57.0,41.0,29.82,South,184,1.0,4.0,55,0.00,,,0.00,,2013-03-23 20:03:00,
2013-03-23 16:13:00,57.0,41.0,29.82,South,184,1.0,4.0,55,0.00,,,0.00,,2013-03-23 20:13:00,
2013-03-23 16:22:00,57.0,40.0,29.81,SSW,195,2.0,5.0,53,0.00,,,0.00,,2013-03-23 20:22:00,
2013-03-23 16:32:00,58.0,41.0,29.81,East,91,0.0,4.0,53,0.00,,,0.00,,2013-03-23 20:32:00,
2013-03-23 16:42:00,58.0,41.0,29.81,East,91,0.0,4.0,53,0.00,,,0.00,,2013-03-23 20:42:00,
2013-03-23 16:53:00,58.0,40.0,29.81,NNE,17,1.0,6.0,52,0.00,,,0.00,,2013-03-23 20:53:00,
2013-03-23 17:02:00,58.0,41.0,29.81,ESE,113,0.0,4.0,53,0.00,,,0.00,,2013-03-23 21:02:00,
2013-03-23 17:12:00,58.0,41.0,29.81,ESE,113,0.0,4.0,53,0.00,,,0.00,,2013-03-23 21:12:00,
2013-03-23 17:22:00,58.0,41.0,29.80,East,101,1.0,5.0,53,0.00,,,0.00,,2013-03-23 21:22:00,
2013-03-23 17:33:00,58.0,41.0,29.80,ENE,74,1.0,6.0,54,0.00,,,0.00,,2013-03-23 21:33:00,
2013-03-23 17:43:00,58.0,41.0,29.80,ENE,74,1.0,6.0,54,0.00,,,0.00,,2013-03-23 21:43:00,
2013-03-23 17:54:00,58.0,42.0,29.81,North,11,0.0,5.0,55,0.00,,,0.00,,2013-03-23 21:54:00,
2013-03-23 18:03:00,57.0,41.0,29.80,North,350,0.0,4.0,56,0.00,,,0.00,,2013-03-23 22:03:00,
2013-03-23 18:13:00,57.0,41.0,29.80,North,350,0.0,4.0,56,0.00,,,0.00,,2013-03-23 22:13:00,
2013-03-23 18:23:00,57.0,42.0,29.80,East,96,0.0,4.0,57,0.00,,,0.00,,2013-03-23 22:23:00,
2013-03-23 18:33:00,56.0,41.0,29.81,ESE,117,0.0,4.0,58,0.00,,,0.00,,2013-03-23 22:33:00,
2013-03-23 18:42:00,56.0,41.0,29.81,ESE,117,0.0,4.0,58,0.00,,,0.00,,2013-03-23 22:42:00,
2013-03-23 18:53:00,56.0,42.0,29.81,East,96,0.0,2.0,60,0.00,,,0.00,,2013-03-23 22:53:00,
2013-03-23 19:02:00,55.0,43.0,29.81,South,189,1.0,4.0,65,0.00,,,0.00,,2013-03-23 23:02:00,
2013-03-23 19:13:00,55.0,43.0,29.81,South,189,1.0,4.0,65,0.00,,,0.00,,2013-03-23 23:13:00,
2013-03-23 19:23:00,51.0,44.0,29.83,SSW,200,2.0,5.0,76,0.00,,,0.00,,2013-03-23 23:23:00,
2013-03-23 19:33:00,50.0,44.0,29.83,SSE,161,1.0,6.0,80,0.00,,,0.00,,2013-03-23 23:33:00,
2013-03-23 19:43:00,50.0,44.0,29.83,SSE,161,1.0,6.0,80,0.00,,,0.00,,2013-03-23 23:43:00,
2013-03-23 19:52:00,50.0,44.0,29.83,SSW,204,1.0,3.0,80,0.00,,,0.00,,2013-03-23 23:52:00,
2013-03-23 20:02:00,49.0,43.0,29.82,SSW,203,0.0,3.0,81,0.00,,,0.00,,2013-03-24 00:02:00,
2013-03-23 20:13:00,49.0,43.0,29.82,SSW,203,0.0,3.0,81,0.00,,,0.00,,2013-03-24 00:13:00,
2013-03-23 20:23:00,49.0,44.0,29.83,South,174,0.0,3.0,83,0.00,,,0.00,,2013-03-24 00:23:00,
2013-03-23 20:33:00,48.0,43.0,29.83,South,174,0.0,2.0,84,0.00,,,0.00,,2013-03-24 00:33:00,
2013-03-23 20:42:00,48.0,43.0,29.83,South,174,0.0,2.0,84,0.00,,,0.00,,2013-03-24 00:42:00,
2013-03-23 20:53:00,48.0,44.0,29.83,South,174,0.0,1.0,85,0.00,,,0.00,,2013-03-24 00:53:00,
2013-03-23 21:02:00,47.0,43.0,29.83,South,174,0.0,1.0,85,0.00,,,0.00,,2013-03-24 01:02:00,
2013-03-23 21:12:00,47.0,43.0,29.83,South,174,0.0,1.0,85,0.00,,,0.00,,2013-03-24 01:12:00,
2013-03-23 21:22:00,47.0,42.0,29.83,South,174,0.0,0.0,84,0.00,,,0.00,,2013-03-24 01:22:00,
2013-03-23 21:32:00,47.0,43.0,29.83,South,174,0.0,1.0,86,0.00,,,0.00,,2013-03-24 01:32:00,
2013-03-23 21:42:00,47.0,43.0,29.83,South,174,0.0,1.0,86,0.00,,,0.00,,2013-03-24 01:42:00,
2013-03-23 21:53:00,47.0,43.0,29.83,South,174,0.0,1.0,87,0.00,,,0.00,,2013-03-24 01:53:00,
2013-03-23 22:03:00,46.0,42.0,29.84,South,174,0.0,3.0,86,0.00,,,0.00,,2013-03-24 02:03:00,
2013-03-23 22:12:00,46.0,42.0,29.84,South,174,0.0,3.0,86,0.00,,,0.00,,2013-03-24 02:12:00,
2013-03-23 22:22:00,46.0,41.0,29.83,South,174,0.0,0.0,84,0.00,,,0.00,,2013-03-24 02:22:00,
2013-03-23 22:32:00,46.0,41.0,29.83,South,174,0.0,2.0,84,0.00,,,0.00,,2013-03-24 02:32:00,
2013-03-23 22:42:00,46.0,41.0,29.83,South,174,0.0,2.0,84,0.00,,,0.00,,2013-03-24 02:42:00,
2013-03-23 22:52:00,46.0,41.0,29.84,SSW,209,0.0,1.0,84,0.00,,,0.00,,2013-03-24 02:52:00,
2013-03-23 23:02:00,46.0,41.0,29.82,SSW,209,0.0,0.0,84,0.00,,,0.00,,2013-03-24 03:02:00,
2013-03-23 23:12:00,46.0,41.0,29.82,SSW,209,0.0,0.0,84,0.00,,,0.00,,2013-03-24 03:12:00,
2013-03-23 23:23:00,46.0,41.0,29.82,SSW,209,0.0,0.0,84,0.00,,,0.00,,2013-03-24 03:23:00,
2013-03-23 23:33:00,46.0,41.0,29.84,SSW,209,0.0,0.0,81,0.00,,,0.00,,2013-03-24 03:33:00,
2013-03-23 23:42:00,46.0,41.0,29.84,SSW,209,0.0,0.0,81,0.00,,,0.00,,2013-03-24 03:42:00,
2013-03-23 23:53:00,46.0,41.0,29.83,SSW,207,0.0,0.0,83,0.00,,,0.00,,2013-03-24 03:53:00,